AirNav   ProFlight Series 2 Aviation Headset
 
 1008 users online  

IL51 Aero Acres Airport
Campus, Illinois, USA

GOING TO CAMPUS?


FAA INFORMATION EFFECTIVE 16 JULY 2020

Location

FAA Identifier: IL51
Lat/Long: 41-02-17.0000N 088-20-15.0000W
41-02.283333N 088-20.250000W
41.0380556,-88.3375000
(estimated)
Elevation: 645 ft. / 196.6 m (surveyed)
Variation: 00W (1985)
From city: 2 miles NW of CAMPUS, IL
Time zone: UTC -5 (UTC -6 during Standard Time)
Zip code: 60420

Airport Operations

Airport use: Private use. Permission required prior to landing
Activation date: 02/1974
Control tower: no
ARTCC: CHICAGO CENTER
FSS: KANKAKEE FLIGHT SERVICE STATION
Attendance: UNATNDD
Wind indicator: yes
Segmented circle: no

Airport Communications

WX AWOS-3 at PNT (15 nm SW): 119.675 (815-844-0923)

Nearby radio navigation aids

VOR radial/distance  VOR name  Freq  Var
IKKr264/22.2KANKAKEE VOR/DME111.6000E
PNTr051/22.2PONTIAC VOR/DME109.6003E
EONr239/28.3PEOTONE VORTAC113.2002E
RBSr342/28.5ROBERTS VOR/DME116.8002E
JOTr180/30.5JOLIET VOR/DME112.3002E

Airport Services

Airframe service: NONE
Powerplant service: NONE

Runway Information

Runway 9/27

Dimensions: 2600 x 275 ft. / 792 x 84 m
Surface: turf
RUNWAY 9  RUNWAY 27
Traffic pattern: leftleft
Obstructions: 120 ft. pline, 3260 ft. from runway34 ft. pline, 1200 ft. from runway

Airport Ownership and Management from official FAA records

Ownership: Privately-owned
Owner: CHARLES BRADY
31085 E 2800N RD.
DWIGHT, IL 60420-8226
Phone 815-674-2930

Airport Operational Statistics

Aircraft based on the field: 4
Single engine airplanes: 4
    

Additional Remarks

FOR CD CTC CHICAGO ARTCC AT 630-906-8921.

Instrument Procedures

There are no published instrument procedures at IL51.

Some nearby airports with instrument procedures:

KPNT - Pontiac Municipal Airport (15 nm SW)
KIKK - Greater Kankakee Airport (22 nm E)
C09 - Morris Municipal Airport-James R. Washburn Field (23 nm N)
KLOT - Lewis University Airport (36 nm N)
C56 - Bult Field Airport (36 nm NE)
 
Loc | Ops | Rwys | IFR | FBO | Links
Com | Nav | Svcs | Stats | Notes
Area around IL51 (Aero Acres Airport)
 
Road maps at: MapQuest Bing Google
 
Aerial photo
WARNING: Photo may not be current or correct
Aerial photo of IL51 (Aero Acres Airport)
Photo taken 28-Jun-2019

Do you have a better or more recent aerial photo of Aero Acres Airport that you would like to share? If so, please send us your photo.

 
Sectional chart

 
Airport distance calculator
Flying to Aero Acres Airport? Find the distance to fly.

From to IL51

Sunrise and sunset
Times for 03-Aug-2020
 Local
(UTC-5)
 Zulu
(UTC)
Morning civil twilight05:2210:22
Sunrise05:5310:53
Sunset20:0601:06
Evening civil twilight20:3601:36

Current date and time
Zulu (UTC)  03-Aug-2020 12:52:45
Local (UTC-5)  03-Aug-2020 07:52:45
 
METAR
KPNT 
15nm SW 
031235Z AUTO 34005KT 10SM OVC007 18/18 A3003 RMK AO2 T01810178
KIKK 
22nm E 
031239Z AUTO 34003KT 10SM OVC006 18/17 A3002 RMK AO2
KC09 
24nm N 
031235Z AUTO 00000KT 10SM OVC008 17/17 A3001 RMK AO2 T01730170
KJOT 
30nm N 
031235Z AUTO 36003KT 10SM OVC010 19/17 A3001 RMK AO2 T01870170
TAF
KBMI 
43nm SW 
031120Z 0312/0412 36009KT P6SM BKN015 TEMPO 0312/0314 4SM BR BKN004 FM031900 36010KT P6SM VCSH BKN035 FM040000 01007KT P6SM BKN060
NOTAMs
Click for the latest NOTAMs
NOTAMs are issued by the DoD/FAA and will open in a separate window not controlled by AirNav.

 

 
 

Would you like to see your business listed on this page?

 If your business provides an interesting product or service to pilots, flight crews, aircraft, or users of the Aero Acres Airport, you should consider listing it here.  To start the listing process, click on the button below
 
Add a business
 

Other Pages about Aero Acres Airport

Update a link
 
Copyright © AirNav, LLC. All rights reserved. Privacy Policy  Contact